Location: Goehring
(40.8151°N, 80.2131°W)
Time: 11:35:45
(UTC+00:00)

Daily predictions for brighter satellites

Satellite Brightness Start Highest point End
(mag) Time Altitude Azimuth Time Altitude Azimuth Time Altitude Azimuth
Cosmos 2082 Rocket 4.2 12:00:04 10° N 12:04:23 22° NE 12:08:38 10° ESE
Meteor 1-11 Rocket 4.2 12:04:19 10° SW 12:09:43 41° WNW 12:15:16 10° N
CORIOLIS 4.2 12:05:23 10° N 12:10:47 77° WNW 12:16:09 10° SSW
Nadezhda 4 Rocket 4.1 22:12:15 10° S 22:18:31 71° E 22:24:49 10° NNE
USA 215 3.5 22:15:29 10° NE 22:22:01 73° NW 22:28:30 10° WSW
Shenzhou-11 Module 2.0 22:20:45 10° WNW 22:23:29 69° SSW 22:26:12 10° ESE
SMAP 3.3 22:20:48 10° SE 22:25:15 47° ENE 22:29:44 10° N
Genesis I 3.7 22:22:41 10° NNW 22:26:20 38° NE 22:29:55 10° ESE
Abrixas rocket 3.7 22:24:50 10° SSW 22:27:15 22° SE 22:29:41 10° E
Cosmos 1980 4.3 22:23:32 10° SW 22:29:05 59° WNW 22:34:42 10° NNE
Envisat 3.7 22:27:14 10° SE 22:31:37 30° ENE 22:36:01 10° N
Cosmos 1666 2.9 22:29:07 10° N 22:32:43 45° E 22:36:18 10° SSE
PSLV R/B 3.9 22:28:56 10° NNE 22:33:06 90° W 22:37:11 10° SSW
Cosmos 1862 Rocket 4.2 22:30:23 10° SSW 22:34:40 59° W 22:39:02 10° N
Radarsat Rocket 4.5 22:29:32 10° S 22:35:38 67° WSW 22:41:27 10° NNW
ALOS 4.2 22:32:50 10° SSW 22:37:03 34° W 22:41:17 10° NNW
Cosmos 1703 Rocket 3.8 22:34:03 10° SSE 22:38:21 50° E 22:42:42 10° NNE
Helios 1A Rocket 4.4 22:35:16 10° S 22:39:09 42° W 22:43:02 10° NNW
Cosmos 407 Rocket 3.8 22:34:51 10° S 22:39:49 49° ESE 22:44:52 10° NNE
Cosmos 2026 Rocket 4.2 22:34:16 10° SSE 22:39:58 45° E 22:45:42 10° NNE
Cosmos 2297 3.9 22:37:13 10° NNW 22:42:44 49° ENE 22:48:11 10° SE
Sich 1 Rocket 4.4 22:42:25 10° NNE 22:46:16 29° ENE 22:50:05 10° SE
YAOGAN 6 3.8 22:44:54 10° ESE 22:47:39 21° ENE 22:50:26 10° NNE
NOAA 12 4.2 22:42:37 10° SE 22:47:43 51° ENE 22:52:50 10° N
ISS -0.6 22:51:08 10° W 22:53:27 18° SW 22:55:46 10° S
Okean O Rocket 3.9 22:50:43 10° SSW 22:54:27 28° W 22:58:12 10° NW
USA 267 3.3 22:48:07 10° ESE 22:54:32 62° NE 23:00:58 10° NW
Cosmos 292 Rocket 3.9 22:49:48 10° NNW 22:54:41 82° WSW 22:59:31 10° SSE
Cosmos 1536 4.1 22:59:22 10° NNW 23:03:11 44° W 23:06:59 10° SSW
Cosmos 1743 2.8 23:04:22 10° N 23:08:09 50° E 23:11:56 10° SSE
Lacrosse 5 rocket 3.8 23:09:06 10° NW 23:10:27 11° NNW 23:11:48 10° N
Okean 1-7 3.1 23:07:06 10° S 23:11:25 82° W 23:15:49 10° N
Cosmos 1908 Rocket 4.2 23:08:25 10° NNW 23:12:43 56° W 23:16:57 10° S
Cosmos 1943 4.3 23:10:36 10° SSE 23:14:58 23° ESE 23:16:08 22° E
Cosmos 1627 Rocket 4.5 23:09:38 10° S 23:15:44 86° W 23:21:55 10° N
SL-4 R/B 3.7 23:14:21 10° NW 23:17:04 18° N 23:17:48 17° NNE
Meteor 1-18 Rocket 4.2 23:12:41 10° S 23:18:22 72° E 23:23:59 10° NNE
Okean-O 2.6 23:14:00 10° SSE 23:18:26 88° W 23:22:53 10° NNW
Okean 1 3.2 23:15:45 10° S 23:19:43 86° E 23:23:43 10° N
COSMO-SKYMED 1 2.5 23:15:58 10° NNE 23:20:13 63° ESE 23:24:30 10° S
Cosmos 1867 3.6 23:15:01 10° NNW 23:20:24 56° NE 23:25:43 10° SE
YAOGAN 1 3.0 23:17:42 10° SE 23:21:40 36° ENE 23:25:38 10° N
Lacrosse 5 2.5 23:21:03 10° SSW 23:25:45 39° SE 23:27:27 30° E
Cosmos 2369 Rocket 2.7 23:24:30 10° N 23:29:38 35° ENE 23:31:27 28° E
Cosmos 1655 Rocket 4.1 23:24:11 10° SSE 23:30:18 56° E 23:36:24 10° NNE
STARLINK-43 3.9 23:29:13 10° WSW 23:32:50 49° NW 23:34:02 34° NNE
SL-16 R/B 3.0 23:27:31 10° SW 23:33:03 51° WNW 23:38:37 10° NNE
CZ-4 R/B 1.1 23:31:13 10° SSE 23:35:04 65° ENE 23:38:53 10° N
CZ-3B R/B 3.9 23:34:42 10° S 23:37:05 13° SSE 23:39:07 11° SE
FengYun 1-2 T 4.1 23:31:46 10° SSE 23:37:15 87° ENE 23:42:47 10° NNW
Meteor 2-13 Rocket 4.4 23:31:47 10° S 23:37:43 62° E 23:43:43 10° NNE
NOSS 7 (H) 4.4 23:34:57 10° SW 23:38:22 66° NW 23:38:52 53° N
Cosmos 676 Rocket 3.9 23:33:56 10° SSW 23:39:06 87° ESE 23:42:40 21° NNE
Cosmos 1603 3.8 23:34:40 10° S 23:40:11 53° ESE 23:42:25 34° NE
Cosmos 921 Rocket 4.1 23:36:58 10° NNW 23:41:06 46° WSW 23:45:17 10° S
Cosmos 2237 Rocket 4.5 23:37:52 10° W 23:41:47 19° NW 23:45:44 10° N
Cosmos 1954 Rocket 3.9 23:40:35 10° SSW 23:45:45 86° WNW 23:49:01 23° NNE
Okean 3 3.2 23:41:59 10° S 23:46:09 75° E 23:47:24 44° NNE
STARLINK-80 3.5 23:43:58 10° WSW 23:47:45 66° NW 23:48:12 59° N
BREEZE-M R/B 3.9 23:48:09 10° NW 23:51:09 28° NNW 23:51:09 28° NNW
IRIDIUM 104 4.3 23:47:25 10° SSE 23:52:32 60° E 23:54:45 33° NNE
